| time (UTC) | temp C | wind direction | speed KPH | gust KPH | rain 1hr cm | rain 24hr cm | rain mn cm | humidity % | barometer mb |
| 20260508221531 | 20 | 70 | 0.0 | 6.4 | 0.00 | 0.00 | 0.00 | 48 | 1011.8 |
| 20260508220030 | 20 | 316 | 0.0 | 12.9 | 0.00 | 0.00 | 0.00 | 48 | 1012.0 |
| 20260508214532 | 20 | 45 | 3.2 | 11.3 | 0.00 | 0.00 | 0.00 | 43 | 1012.1 |
| 20260508213037 | 20 | 37 | 0.0 | 6.4 | 0.00 | 0.00 | 0.00 | 44 | 1012.3 |
| 20260508211535 | 20 | 38 | 1.6 | 11.3 | 0.00 | 0.00 | 0.00 | 44 | 1012.3 |
| 20260508210027 | 20 | 31 | 0.0 | 8.0 | 0.00 | 0.00 | 0.00 | 44 | 1012.4 |
| 20260508204525 | 21 | 315 | 1.6 | 11.3 | 0.00 | 0.00 | 0.00 | 42 | 1012.2 |
| 20260508203023 | 21 | 334 | 0.0 | 6.4 | 0.00 | 0.00 | 0.00 | 40 | 1012.3 |
| 20260508201522 | 21 | 27 | 0.0 | 4.8 | 0.00 | 0.00 | 0.00 | 40 | 1012.6 |
| 20260508200019 | 21 | 201 | 0.0 | 9.7 | 0.00 | 0.00 | 0.00 | 36 | 1012.5 |
| 20260508194528 | 22 | 46 | 0.0 | 6.4 | 0.00 | 0.00 | 0.00 | 40 | 1012.8 |
| 20260508193012 | 21 | 230 | 0.0 | 6.4 | 0.00 | 0.00 | 0.00 | 38 | 1013.2 |
| 20260508191509 | 21 | 29 | 0.0 | 8.0 | 0.00 | 0.00 | 0.00 | 41 | 1013.6 |
| 20260508190012 | 21 | 30 | 3.2 | 11.3 | 0.00 | 0.00 | 0.00 | 38 | 1014.2 |
| 20260508184506 | 21 | 322 | 0.0 | 6.4 | 0.00 | 0.00 | 0.00 | 41 | 1014.4 |
| 20260508183126 | 20 | 137 | 0.0 | 6.4 | 0.00 | 0.00 | 0.00 | 44 | 1014.5 |
| 20260508181606 | 20 | 50 | 4.8 | 9.7 | 0.00 | 0.00 | 0.00 | 43 | 1014.9 |
| 20260508180055 | 20 | 98 | 0.0 | 6.4 | 0.00 | 0.00 | 0.00 | 39 | 1014.9 |
| 20260508174653 | 20 | 94 | 0.0 | 8.0 | 0.00 | 0.00 | 0.00 | 41 | 1015.1 |
| 20260508173047 | 19 | 74 | 0.0 | 9.7 | 0.00 | 0.00 | 0.00 | 45 | 1015.1 |
| 20260508171545 | 18 | 103 | 4.8 | 14.5 | 0.00 | 0.00 | 0.00 | 44 | 1015.5 |
| 20260508170053 | 19 | 15 | 6.4 | 14.5 | 0.00 | 0.00 | 0.00 | 44 | 1015.7 |
| 20260508164545 | 18 | 111 | 0.0 | 4.8 | 0.00 | 0.00 | 0.00 | 45 | 1016.1 |
| 20260508163038 | 18 | 299 | 0.0 | 4.8 | 0.00 | 0.00 | 0.00 | 43 | 1016.5 |
| 20260508161539 | 18 | 281 | 0.0 | 6.4 | 0.00 | 0.00 | 0.00 | 44 | 1016.6 |
| 20260508160037 | 18 | 60 | 0.0 | 4.8 | 0.00 | 0.00 | 0.00 | 46 | 1016.9 |
| 20260508154551 | 18 | 151 | 0.0 | 8.0 | 0.00 | 0.00 | 0.00 | 45 | 1017.0 |
| 20260508153033 | 17 | 224 | 3.2 | 12.9 | 0.00 | 0.00 | 0.00 | 44 | 1017.1 |
| 20260508151533 | 17 | 214 | 0.0 | 4.8 | 0.00 | 0.00 | 0.00 | 53 | 1017.4 |
| 20260508150035 | 17 | 213 | 0.0 | 4.8 | 0.00 | 0.00 | 0.00 | 54 | 1017.5 |
| 20260508144528 | 17 | 183 | 1.6 | 4.8 | 0.00 | 0.00 | 0.00 | 53 | 1017.5 |
| 20260508143026 | 17 | 25 | 0.0 | 1.6 | 0.00 | 0.00 | 0.00 | 58 | 1017.6 |
| 20260508141531 | 16 | 129 | 0.0 | 1.6 | 0.00 | 0.00 | 0.00 | 57 | 1017.6 |
| 20260508140023 | 16 | 272 | 0.0 | 4.8 | 0.00 | 0.00 | 0.00 | 57 | 1017.6 |
| 20260508134522 | 16 | 214 | 0.0 | 4.8 | 0.00 | 0.00 | 0.00 | 58 | 1017.7 |
| 20260508133036 | 15 | 218 | 0.0 | 3.2 | 0.00 | 0.00 | 0.00 | 62 | 1017.7 |
| 20260508131517 | 15 | 160 | 0.0 | 0.0 | 0.00 | 0.00 | 0.00 | 63 | 1017.6 |
| 20260508130015 | 13 | 186 | 0.0 | 0.0 | 0.00 | 0.00 | 0.00 | 80 | 1017.5 |
| 20260508124508 | 12 | 185 | 0.0 | 0.0 | 0.00 | 0.00 | 0.00 | 86 | 1017.3 |
| 20260508123005 | 11 | 124 | 0.0 | 0.0 | 0.00 | 0.00 | 0.00 | 92 | 1017.4 |
| 20260508121600 | 10 | 108 | 0.0 | 0.0 | 0.00 | 0.00 | 0.00 | 96 | 1017.3 |
| 20260508120058 | 7 | 107 | 0.0 | 0.0 | 0.00 | 0.00 | 0.00 | 97 | 1017.3 |
| 20260508114553 | 5 | 107 | 0.0 | 0.0 | 0.00 | 0.00 | 0.00 | 96 | 1016.9 |
| 20260508113049 | 4 | 107 | 0.0 | 0.0 | 0.00 | 0.00 | 0.00 | 95 | 1016.7 |
| 20260508111547 | 4 | 107 | 0.0 | 0.0 | 0.00 | 0.00 | 0.00 | 95 | 1016.5 |
| 20260508110044 | 3 | 107 | 0.0 | 0.0 | 0.00 | 0.00 | 0.00 | 94 | 1016.2 |
| 20260508104543 | 4 | 107 | 0.0 | 0.0 | 0.00 | 0.00 | 0.00 | 94 | 1016.0 |
| 20260508103039 | 4 | 107 | 0.0 | 0.0 | 0.00 | 0.00 | 0.00 | 93 | 1015.8 |
| 20260508101539 | 4 | 107 | 0.0 | 0.0 | 0.00 | 0.00 | 0.00 | 93 | 1015.5 |
| 20260508100033 | 5 | 107 | 0.0 | 0.0 | 0.00 | 0.03 | 0.00 | 93 | 1015.5 |
| 20260508094532 | 5 | 107 | 0.0 | 0.0 | 0.00 | 0.03 | 0.00 | 93 | 1015.5 |
| 20260508093030 | 5 | 107 | 0.0 | 0.0 | 0.00 | 0.03 | 0.00 | 93 | 1015.3 |
| 20260508091527 | 5 | 107 | 0.0 | 0.0 | 0.00 | 0.03 | 0.00 | 92 | 1015.3 |
| 20260508090043 | 6 | 107 | 0.0 | 0.0 | 0.00 | 0.05 | 0.00 | 92 | 1015.2 |
| 20260508084525 | 6 | 107 | 0.0 | 0.0 | 0.00 | 0.05 | 0.00 | 91 | 1015.2 |
| 20260508083024 | 6 | 107 | 0.0 | 0.0 | 0.00 | 0.05 | 0.00 | 89 | 1015.3 |
| 20260508081524 | 6 | 107 | 0.0 | 0.0 | 0.00 | 0.05 | 0.00 | 90 | 1015.1 |
| 20260508080023 | 6 | 107 | 0.0 | 0.0 | 0.00 | 0.08 | 0.00 | 90 | 1015.2 |
| 20260508074524 | 6 | 107 | 0.0 | 0.0 | 0.00 | 0.08 | 0.00 | 89 | 1015.1 |
| 20260508073019 | 6 | 107 | 0.0 | 0.0 | 0.00 | 0.08 | 0.00 | 89 | 1015.1 |
| 20260508071518 | 6 | 107 | 0.0 | 0.0 | 0.00 | 0.08 | 0.00 | 89 | 1015.2 |
| 20260508070016 | 6 | 107 | 0.0 | 0.0 | 0.00 | 0.08 | 0.00 | 89 | 1015.3 |
| 20260508064514 | 7 | 107 | 0.0 | 0.0 | 0.00 | 0.08 | 0.00 | 88 | 1015.3 |
| 20260508063013 | 7 | 107 | 0.0 | 0.0 | 0.00 | 0.08 | 0.00 | 87 | 1015.2 |
| 20260508061512 | 7 | 107 | 0.0 | 0.0 | 0.00 | 0.08 | 0.00 | 88 | 1015.2 |
| 20260508060013 | 7 | 107 | 0.0 | 0.0 | 0.00 | 0.08 | 0.00 | 88 | 1015.3 |
| 20260508054511 | 7 | 107 | 0.0 | 0.0 | 0.00 | 0.08 | 0.00 | 89 | 1015.4 |
| 20260508053013 | 7 | 107 | 0.0 | 0.0 | 0.00 | 0.08 | 0.00 | 89 | 1015.4 |
| 20260508051510 | 8 | 106 | 0.0 | 0.0 | 0.00 | 0.08 | 0.00 | 89 | 1015.3 |
| 20260508050006 | 7 | 106 | 0.0 | 0.0 | 0.00 | 0.20 | 0.00 | 86 | 1015.5 |
| 20260508044505 | 7 | 106 | 0.0 | 0.0 | 0.00 | 0.20 | 0.00 | 85 | 1015.3 |
| 20260508043100 | 8 | 106 | 0.0 | 0.0 | 0.00 | 0.20 | 0.00 | 84 | 1015.2 |
| 20260508041557 | 8 | 106 | 0.0 | 0.0 | 0.00 | 0.20 | 0.00 | 83 | 1015.1 |
| 20260508040057 | 9 | 106 | 0.0 | 0.0 | 0.00 | 0.20 | 0.20 | 81 | 1014.8 |
| 20260508034554 | 9 | 106 | 0.0 | 0.0 | 0.00 | 0.20 | 0.20 | 81 | 1014.9 |
| 20260508033057 | 9 | 106 | 0.0 | 0.0 | 0.00 | 0.20 | 0.20 | 81 | 1014.8 |
| 20260508031555 | 10 | 106 | 0.0 | 0.0 | 0.00 | 0.20 | 0.20 | 82 | 1014.9 |
| 20260508030054 | 10 | 106 | 0.0 | 0.0 | 0.00 | 0.33 | 0.20 | 80 | 1014.8 |
| 20260508024611 | 10 | 106 | 0.0 | 0.0 | 0.00 | 0.33 | 0.20 | 78 | 1014.6 |
| 20260508023041 | 10 | 143 | 0.0 | 0.0 | 0.00 | 0.33 | 0.20 | 79 | 1014.4 |
| 20260508021543 | 10 | 143 | 0.0 | 0.0 | 0.00 | 0.33 | 0.20 | 78 | 1014.3 |
| 20260508020046 | 11 | 143 | 0.0 | 0.0 | 0.00 | 0.33 | 0.20 | 78 | 1014.3 |
| 20260508014538 | 11 | 165 | 0.0 | 0.0 | 0.00 | 0.33 | 0.20 | 79 | 1013.9 |
| 20260508013034 | 11 | 165 | 0.0 | 0.0 | 0.00 | 0.33 | 0.20 | 79 | 1013.7 |
| 20260508011533 | 11 | 167 | 0.0 | 0.0 | 0.00 | 0.33 | 0.20 | 79 | 1013.5 |
| 20260508010030 | 12 | 168 | 0.0 | 0.0 | 0.00 | 0.33 | 0.20 | 75 | 1013.3 |
| 20260508004539 | 13 | 167 | 0.0 | 0.0 | 0.00 | 0.33 | 0.20 | 72 | 1013.0 |
| 20260508003026 | 13 | 167 | 0.0 | 0.0 | 0.00 | 0.33 | 0.20 | 69 | 1012.9 |
| 20260508001533 | 14 | 168 | 0.0 | 0.0 | 0.00 | 0.33 | 0.20 | 69 | 1012.6 |
| 20260508000024 | 15 | 168 | 0.0 | 0.0 | 0.00 | 0.41 | 0.20 | 65 | 1012.4 |
| 20260507234528 | 15 | 168 | 0.0 | 0.0 | 0.00 | 0.41 | 0.20 | 64 | 1012.2 |
| 20260507233024 | 16 | 129 | 0.0 | 8.0 | 0.00 | 0.41 | 0.20 | 65 | 1012.1 |
| 20260507231524 | 17 | 110 | 0.0 | 0.0 | 0.00 | 0.41 | 0.20 | 63 | 1012.2 |
| 20260507230022 | 17 | 115 | 0.0 | 4.8 | 0.00 | 0.64 | 0.20 | 59 | 1012.3 |
| 20260507224523 | 17 | 139 | 0.0 | 3.2 | 0.00 | 0.64 | 0.20 | 57 | 1012.2 |
| 20260507223022 | 18 | 212 | 0.0 | 3.2 | 0.00 | 0.64 | 0.20 | 54 | 1012.1 |